Regional Weather Roundup
Issued by NWS

Home | Current Version | Previous Version | Text Only | Print | Product List | Glossary On
Versions: 1 2 3 4 5 6 7 8 9 10 11 12 13 14 15 16 17 18 19 20 21 22 23 24 25 26 27 28 29 30 31 32 33 34 35 36 37 38 39 40 41 42 43 44 45 46 47 48 49 50
000
ASUS43 KMKX 311621
RWRWI

WISCONSIN REGIONAL WEATHER ROUNDUP
NATIONAL WEATHER SERVICE MILWAUKEE/SULLIVAN WI
1100 AM CDT WED AUG 31 2016

NOTE: "FAIR" INDICATES FEW OR NO CLOUDS BELOW 12,000 FEET WITH NO
SIGNIFICANT WEATHER AND/OR OBSTRUCTIONS TO VISIBILITY.

WIZ001-002-006>008-014>016-023>028-311700-
NORTHWEST WISCONSIN

CITY           SKY/WX    TMP DP  RH WIND       PRES   REMARKS
SUPERIOR ARPT  SUNNY     69  54  58 CALM      30.21S
ASHLAND        MOSUNNY   71  58  63 VRB5      30.21R
HAYWARD        SUNNY     69  53  56 N7        30.22S
SIREN          SUNNY     69  52  55 N7        30.22S
CUMBERLAND     SUNNY     68  50  52 NW7       30.22S
RICE LAKE      SUNNY     70  55  57 N3        30.22S
CHETEK         NOT AVBL
LADYSMITH      SUNNY     70  55  58 N5        30.22S
EAU CLAIRE     NOT AVBL
MENOMONIE      SUNNY     71  53  52 NW7       30.21S
NEW RICHMOND   SUNNY     71  53  52 NW5       30.22S
OSCEOLA        SUNNY     69  54  59 N6        30.25S
$$

WIZ003>005-009-010-017-018-311700-
NORTH CENTRAL WISCONSIN

CITY           SKY/WX    TMP DP  RH WIND       PRES   REMARKS
MANITOWISH WTR NOT AVBL
ARBOR VITAE    MOSUNNY   72  58  60 N10       30.20S
WOODRUFF       MOSUNNY   72  58  60 N10       30.20S
RHINELANDER    PTSUNNY   69  53  56 N9        30.20R
EAGLE RIVER    PTSUNNY   67  52  58 N6        30.19R
LAND O LAKES   PTSUNNY   68  53  58 NW8       30.20S
PHILLIPS       MOSUNNY   67  55  63 N7        30.20S
TOMAHAWK       PTSUNNY   68  52  56 N8        30.20R
MEDFORD        SUNNY     68  52  55 N9        30.20R
MERRILL        SUNNY     69  55  60 NE7       30.19S
$$

WIZ029-030-035-036-043>047-311700-
CENTRAL WISCONSIN

CITY           SKY/WX    TMP DP  RH WIND       PRES   REMARKS
WAUSAU         SUNNY     70  52  52 VRB7      30.16S
MOSINEE        SUNNY     70  55  60 N9        30.19R
MARSHFIELD     SUNNY     72  51  47 N9        30.17S
STEVENS POINT  SUNNY     67  54  61 CALM      30.17F
WAUPACA        SUNNY     73  53  48 NW6       30.15F
WAUTOMA        SUNNY     72  53  51 N5        30.16S
WISC RAPIDS    SUNNY     72  57  59 VRB5      30.18S
CAMP DOUGLAS   MOSUNNY   72  55  56 N6        30.17R
$$

WIZ011>013-019>022-031-037>040-048>050-311700-
NORTHEAST WISCONSIN

CITY           SKY/WX    TMP DP  RH WIND       PRES   REMARKS
ANTIGO         SUNNY     68  54  60 CALM      30.18S
SHAWANO        SUNNY     72  56  56 CALM      30.15S
OCONTO         NOT AVBL
STURGEON BAY   SUNNY     69  57  65 NW8       30.14S
GREEN BAY      SUNNY     70  59  68 NW9       30.14S
MANITOWOC      SUNNY     71  55  56 NW13      30.12F
APPLETON       MOSUNNY  N/A N/A N/A VRB5      30.13F
CLINTONVILLE   SUNNY     72  52  49 NW9       30.14F
OSHKOSH        SUNNY     72  52  49 N8        30.13S
$$

WIZ032>034-041-042-053>061-311700-
SOUTHWEST WISCONSIN

CITY           SKY/WX    TMP DP  RH WIND       PRES   REMARKS
LA CROSSE      SUNNY     71  59  65 NW8       30.17S
SPARTA         SUNNY     69  56  64 N3        30.18S
VIROQUA        SUNNY     71  55  58 N5        30.18S
BOSCOBEL       SUNNY     73  57  57 MISG      30.16S
PRAIRIE DU CHI SUNNY     73  52  48 N5        30.16S
PLATTEVILLE    PTSUNNY   71  66  83 N13       30.16S
$$

WIZ056-057-062-063-064-067-068-311700-
SOUTH CENTRAL WISCONSIN

CITY           SKY/WX    TMP DP  RH WIND       PRES   REMARKS
REEDSBURG      NOT AVBL
BARABOO/DELLS  SUNNY     70  52  52 NE5       30.16S
LONE ROCK      SUNNY     73  54  51 VRB6      30.16R
MINERAL POINT  MOSUNNY   72  61  68 N12       30.16S
MADISON        MOSUNNY   71  56  58 NE10      30.14R
MIDDLETON      SUNNY     72  58  61 NE7       30.15S
WATERTOWN      SUNNY     70  59  67 N8        30.13R
MONROE         PTSUNNY   68  61  77 N8        30.13S
JANESVILLE     MOSUNNY   73  59  60 N6        30.11S
$$

WIZ051-052-058>065-066-070>072-311700-
SOUTHEAST WISCONSIN

CITY           SKY/WX    TMP DP  RH WIND       PRES   REMARKS
MILWAUKEE      MOSUNNY   72  59  63 NE16G22   30.11R
WAUKESHA       SUNNY     70  55  60 N9        30.13S
MILWAUKEE/TIMM MOSUNNY   70  55  60 NE7       30.12R
RACINE         CLOUDY    70  61  73 N15G23    30.12R
BURLINGTON     MOSUNNY   71  57  60 N8        30.11R
KENOSHA        MOSUNNY   71  62  73 NE10      30.10S
FOND DU LAC    SUNNY     73  55  53 NE9       30.14R
SHEBOYGAN      SUNNY     73  55  53 N13       30.12R
WEST BEND      SUNNY     70  54  56 N9        30.12F
JUNEAU         SUNNY     69  57  64 N9        30.14F
$$

LSZ147-162-311700-
LAKE SUPERIOR

STATION/POSITION TIME  TEMP    WIND        PRES    WAVE
                       AIR SEA DIR/SP/G            HT/PER
                 (UTC) (F)     (DEG/KT/KT) (MB)    (FT/S)
W MID LAKE BUOY  1550   65 67  340/  8/ 10 1021.7R   1/ 3
DEVILS ISLAND    1600   66     250/  2/  4 1022.7R
PORT WING        1540   65     270/  6/  7 1023.0S
SAXON HARBOR     1540   66     300/  4/  5 1022.7R
$$

LMZ867-665-643>646-311700-
LAKE MICHIGAN

STATION/POSITION TIME  TEMP    WIND        PRES    WAVE
                       AIR SEA DIR/SP/G            HT/PER
                 (UTC) (F)     (DEG/KT/KT) (MB)    (FT/S)
CHAMBERS ISLAND  1500   69     350/  5/  7 1020.0R
S GREEN BAY BUOY 1600   66 72  340/  6/  8 1020.0
N MID LAKE BUOY  1550   67 71  330/  8/ 10 1018.9R   2/ 4
NORTHPORT PIER   1500   67     350/ 10/ 13 1019.6S
SISTER BAY       1407   69     360/ 13/ 15   N/A
ALGOMA LAKESHORE 1415          340/  7/  9   N/A
KEWAUNEE LAKESHO 1600   71     330/  6/  9 1019.6S
SHEBOYGAN LAKESH 1600   65      20/ 10/ 11 1019.4R
PORT WASHINGTON  1510   71      30/  8/ 12 1020.3R
ATWATER BUOY     1600   66      10/ 12/ 16   N/A
MILWAUKEE LAKESH 1610   67     360/ 15/ 18   N/A
S MID LAKE BUOY  1550   70 75   30/ 19/ 21 1017.3R   4/ 6
KENOSHA   LAKESH 1600   67      10/ 14/ 16 1018.6S
$$

TC  - TEMPERATURE IN CELSIUS
VSB - VISIBILITY IN STATUTE MILES
WCI - WIND CHILL INDEX
HX  - HEAT INDEX





USA.gov is the U.S. government's official web portal to all federal, state and local government web resources and services.